Burnet, TX

7:23 PM CDT on June 28, 2017 (GMT -0500)
Burnet Municipal-Craddock

Weather History for KBMQ - May, 2013

Change the Weather History Date:

Saturday, May 11, 2013

  Actual Average Record
Temperature  
Mean Temperature 70 °F -  
Max Temperature 80 °F 81 °F 90 °F (1998)
Min Temperature 61 °F 62 °F 51 °F (1997)
Cooling Degree Days 5    
Growing Degree Days 20 (Base 50)    
Moisture  
Dew Point 53 °F    
Average Humidity 60    
Maximum Humidity 90    
Minimum Humidity 32    
Precipitation  
Precipitation 0.00 in - - ()
Sea Level Pressure  
Sea Level Pressure 30.10 in    
Wind  
Wind Speed 7 mph (NNE)    
Max Wind Speed 17 mph    
Max Gust Speed 23 mph    
Visibility 10 miles    
Events      
Averages and records for this station are not official NWS values.
T = Trace of Precipitation, MM = Missing Value Source: NWS Daily Summary

Daily Weather History Graph

Daily Weather History Graph

Search for Another Location

Airport or City:

Trip Planner

Search our weather history database for the weather conditions in past years. The results will help you decide how hot, cold, wet, or windy it might be!

Date:

Astronomy

May. 11, 2013 Rise Set
Actual Time 6:40 AM CDT 8:18 PM CDT
Civil Twilight 6:14 AM CDT 8:44 PM CDT
Nautical Twilight 5:43 AM CDT 9:16 PM CDT
Astronomical Twilight 5:10 AM CDT 9:49 PM CDT
Moon 7:51 AM CDT (5/11) 9:57 PM CDT (5/11)
Length of Visible Light 14h 30m
Length of Day
13h 37m
Waxing Crescent, 3% of the Moon is Illuminated
May 11
Waxing Crescent
May 17
First Quarter
May 24
Full
May 31
Last Quarter
Jun 8
New

Hourly Weather History & Observations

Time (CDT) Temp. Dew Point Humidity Pressure Visibility Wind Dir Wind Speed Gust Speed Precip Events Conditions
12:53 AM 61.0 °F 57.9 °F 90% 30.04 in 10.0 mi Calm Calm - N/A   Clear
1:53 AM 61.0 °F 57.9 °F 90% 30.06 in 10.0 mi North 3.5 mph - N/A   Mostly Cloudy
2:53 AM 62.1 °F 59.0 °F 90% 30.06 in 10.0 mi Calm Calm - N/A   Clear
3:53 AM 62.1 °F 57.9 °F 86% 30.06 in 10.0 mi NNW 6.9 mph - N/A   Clear
4:53 AM 63.0 °F 57.0 °F 81% 30.06 in 10.0 mi North 4.6 mph - N/A   Clear
5:53 AM 61.0 °F 57.0 °F 87% 30.07 in 10.0 mi North 4.6 mph - N/A   Clear
6:53 AM 61.0 °F 55.9 °F 83% 30.09 in 10.0 mi North 6.9 mph - N/A   Clear
7:53 AM 63.0 °F 55.0 °F 75% 30.10 in 10.0 mi North 10.4 mph - N/A   Clear
8:53 AM 66.0 °F 57.0 °F 73% 30.11 in 10.0 mi NNE 16.1 mph 20.7 mph N/A   Clear
9:53 AM 69.1 °F 57.0 °F 65% 30.13 in 10.0 mi NNE 17.3 mph - N/A   Clear
10:53 AM 71.1 °F 55.9 °F 59% 30.13 in 10.0 mi NNE 11.5 mph - N/A   Clear
11:53 AM 73.0 °F 54.0 °F 51% 30.14 in 10.0 mi North 12.7 mph 18.4 mph N/A   Partly Cloudy
12:53 PM 75.0 °F 54.0 °F 48% 30.12 in 10.0 mi NNE 15.0 mph 23.0 mph N/A   Partly Cloudy
1:53 PM 77.0 °F 54.0 °F 45% 30.12 in 10.0 mi North 13.8 mph 19.6 mph N/A   Scattered Clouds
2:53 PM 77.0 °F 51.1 °F 40% 30.12 in 10.0 mi North 15.0 mph 21.9 mph N/A   Clear
3:53 PM 79.0 °F 48.9 °F 35% 30.09 in 10.0 mi NNE 11.5 mph - N/A   Partly Cloudy
4:53 PM 79.0 °F 46.9 °F 32% 30.09 in 10.0 mi NNE 13.8 mph 23.0 mph N/A   Clear
5:53 PM 78.1 °F 46.0 °F 32% 30.08 in 10.0 mi NNE 15.0 mph - N/A   Clear
6:53 PM 77.0 °F 45.0 °F 32% 30.09 in 10.0 mi NNE 15.0 mph - N/A   Clear
7:53 PM 73.9 °F 46.0 °F 37% 30.11 in 10.0 mi NNE 6.9 mph - N/A   Clear
8:53 PM 70.0 °F 48.9 °F 47% 30.14 in 10.0 mi Calm Calm - N/A   Clear
9:53 PM 66.9 °F 48.9 °F 52% 30.16 in 10.0 mi North 3.5 mph - N/A   Clear
10:53 PM 66.0 °F 48.9 °F 54% 30.15 in 10.0 mi North 4.6 mph - N/A   Clear
11:53 PM 64.0 °F 48.9 °F 58% 30.16 in 10.0 mi Calm Calm - N/A   Clear